Location: Saladito Ranch
(34.5198°N, 107.1506°W)
Time: 05:57:13
(UTC+00:00)

Daily predictions for brighter satellites

Satellite Brightness Start Highest point End
(mag) Time Altitude Azimuth Time Altitude Azimuth Time Altitude Azimuth
CZ-3A R/B 4.3 02:27:04 10° SSW 02:31:03 30° SSE 02:45:39 10° E
CSL-04 DEB 4.3 02:43:40 10° SSE 02:47:29 75° ENE 02:51:23 10° N
Resurs 01 Rocket 2.0 02:44:18 10° S 02:48:40 69° W 02:53:05 10° NNW
Cosmos 1300 Rocket 4.2 02:45:05 10° NNE 02:49:06 36° E 02:53:04 10° SSE
IRIDIUM 104 4.4 02:44:53 10° S 02:50:06 88° E 02:55:20 10° N
BREEZE-M R/B 4.3 02:45:51 10° WNW 02:51:58 33° WSW 02:55:03 10° SSE
SL-08 R/B 3.2 02:47:55 10° NNE 02:52:33 75° ESE 02:57:14 10° S
Helios 1B rocket 4.3 02:51:48 10° E 02:53:28 13° ENE 02:55:07 10° NE
PAYLOAD B 4.5 02:49:55 10° SSE 02:55:16 54° ENE 03:00:38 10° N
Cosmos 1607 4.5 02:50:05 10° SW 02:56:16 66° WNW 03:02:26 10° NNE
Okean-O 4.5 02:55:42 10° ESE 02:58:13 15° ENE 03:00:44 10° NNE
Cosmos 1908 Rocket 3.8 02:56:27 10° N 03:00:53 76° W 03:05:17 10° S
DELTA 2 R/B (1) 3.8 02:55:47 10° SW 03:01:02 46° SSE 03:06:18 10° ENE
Tiangong -1.0 03:01:26 10° SSW 03:04:13 26° SE 03:07:00 10° E
Cosmos 2034 Rocket 4.1 02:57:59 10° N 03:04:17 61° E 03:10:33 10° SSE
TRACE 3.5 03:02:43 10° NNE 03:04:23 32° E 03:06:00 10° SSE
Okean O Rocket 2.9 03:02:24 10° ESE 03:05:49 24° ENE 03:09:21 10° NNE
Meteor 2-5 Rocket 4.2 03:03:32 10° SSW 03:09:20 68° W 03:15:06 10° N
Tsikada Rocket 4.0 03:11:36 10° S 03:17:54 74° E 03:24:18 10° N
CZ-4B R/B 3.9 03:15:37 12° SE 03:20:20 49° ENE 03:25:19 10° N
Cosmos 1777 Rocket 4.3 03:16:20 10° S 03:21:15 44° ESE 03:26:10 10° NNE
Meteor PRIRODA 4.2 03:25:45 21° ESE 03:26:37 25° ENE 03:28:59 10° NNE
Feng Yun 1-1 Rocket 4.4 03:23:19 10° SSE 03:29:07 84° WSW 03:34:49 10° NNW
MOS 1-B 4.5 03:28:28 15° SSE 03:33:13 59° ENE 03:38:52 10° N
CZ-4 R/B 3.1 03:34:26 10° SSW 03:37:36 27° W 03:40:47 10° NW
Cosmos 1606 2.2 03:34:46 10° N 03:37:49 72° W 03:39:56 18° S
Meteor 1-21 Rocket 4.5 03:35:43 13° SSE 03:40:36 47° E 03:45:57 10° NNE
Cosmos 1570 Rocket 4.0 03:37:15 10° NNW 03:42:32 75° ENE 03:46:02 21° SSE
Cosmos 44 3.7 03:42:27 23° SSE 03:44:05 31° ESE 03:47:55 10° NE
Cosmos 2297 3.6 03:39:54 10° SSW 03:45:30 79° ESE 03:51:10 10° NNE
USA 186 3.6 03:46:18 10° SSW 03:48:31 23° W 03:50:45 10° NW
Spot 2 Rocket 4.2 03:46:23 24° ESE 03:48:43 37° ENE 03:53:22 10° N
Cosmos 1486 Rocket 4.5 03:44:56 10° SSW 03:50:06 63° WNW 03:55:21 10° N
Okean 2 Rocket 4.3 03:48:57 10° NNE 03:52:31 24° ENE 03:53:11 23° E
Terra 1.8 03:52:28 27° SSE 03:55:00 68° ENE 03:59:41 10° N
Cosmos 2242 Rocket 4.4 03:52:53 10° SSW 03:57:07 50° W 04:01:23 10° N
COSMOS 2406 3.3 03:51:40 10° NNW 03:57:25 80° WSW 04:01:02 24° SSE
Chandra Rocket (1) 4.3 03:41:11 10° SW 03:57:38 32° S 04:00:32 25° SE
Cosmos 2151 Rocket 4.3 03:55:02 10° N 03:59:13 37° E 04:00:13 33° ESE
CZ-4B R/B 4.0 03:54:33 10° S 03:59:42 48° W 04:04:56 10° NNW
ERS-1 Rocket 2.9 03:58:55 24° SSE 04:02:00 86° WSW 04:07:01 10° NNW
Cosmos 2221 Rocket 4.0 04:02:08 37° SE 04:03:14 44° E 04:07:32 10° NNE
SPOT 5 4.2 03:58:23 10° SSW 04:03:15 41° W 04:08:15 10° NNW
CZ-4B R/B 3.5 04:03:58 23° SSW 04:05:49 44° W 04:09:18 10° NNW
Okean 1 Rocket 4.1 04:04:55 10° NNE 04:08:39 28° ENE 04:08:48 27° E
In-Cosmos 22 Rocket 4.3 04:04:41 12° S 04:10:13 87° W 04:16:01 10° N
CZ-4C R/B 1.3 04:09:47 33° S 04:11:26 64° ESE 04:16:05 10° NE
Cosmos 1340 Rocket 2.7 04:09:14 10° NNW 04:13:05 77° W 04:14:05 47° S
Cosmos 2082 Rocket 3.7 04:10:13 10° NW 04:15:09 30° WSW 04:19:44 11° SSW
Cosmos 990 Rocket 3.9 04:13:17 30° S 04:15:49 66° ESE 04:20:58 10° NNE
Cosmos 2369 Rocket 3.0 04:16:39 10° SW 04:22:11 51° WNW 04:27:44 10° N
USA 245 3.4 04:21:13 52° SSE 04:22:14 79° ENE 04:26:05 10° N
Cosmos 1900 4.5 04:22:02 48° SE 04:22:26 50° ESE 04:27:19 10° NE
NOSS 3-4 (A) 4.3 04:15:37 10° NNW 04:22:35 53° NE 04:26:16 32° ESE
NOSS 3-4 (C) 4.3 04:15:40 10° NNW 04:22:38 52° NE 04:26:17 31° ESE
Helios 1A 3.9 04:19:01 10° N 04:22:46 43° WNW 04:25:48 15° SW
Sich 1 Rocket 3.9 04:19:17 10° N 04:23:42 49° E 04:24:02 48° E
Cosmos 1869 2.9 04:21:50 10° N 04:25:16 82° NNE 04:25:16 82° NNE
Cosmos 1674 Rocket 3.9 04:23:16 28° SSW 04:25:29 64° W 04:29:54 10° N
Helios 1B rocket 3.6 04:25:27 25° SW 04:26:45 32° W 04:30:06 10° NNW
Nadezhda 4 Rocket 4.0 04:26:02 36° SSE 04:28:43 69° E 04:35:01 10° NNE
Okean-O 3.6 04:32:26 28° SSW 04:34:08 40° W 04:38:16 10° NNW
Cosmos 2285 Rocket 4.0 04:32:06 38° SSE 04:34:29 64° ESE 04:40:49 10° NNE
OAO 3 Copernicus 4.3 04:30:20 10° WSW 04:34:52 56° S 04:34:52 56° S
Tiangong -0.6 04:38:01 10° W 04:40:16 36° WNW 04:40:16 36° WNW
Okean O Rocket 3.5 04:39:40 16° SW 04:41:53 24° W 04:45:25 10° NW
Cosmos 783 Rocket 4.3 04:39:21 10° NNW 04:44:38 79° ENE 04:45:18 66° SE
DELTA 2 R/B (1) 3.8 04:41:49 10° W 04:47:19 67° NNW 04:51:41 17° ENE
Cosmos 2026 Rocket 4.1 04:47:18 49° ESE 04:47:48 50° E 04:53:36 10° NNE
Cosmos 1025 Rocket 3.5 04:47:33 48° WSW 04:48:21 56° W 04:52:38 10° N
Ariane Rocket 2.8 04:52:03 74° SSE 04:52:31 87° ENE 04:57:36 10° NNW
Cosmos 1428 Rocket 4.3 04:53:00 51° S 04:54:40 87° E 05:00:52 10° N
ASTEX 1 3.9 04:52:41 10° N 04:57:24 54° W 04:58:39 42° SW
COBE Rocket 3.8 05:02:40 10° N 05:07:12 71° WNW 05:07:12 71° WNW
Cosmos 1092 Rocket 3.9 05:09:04 67° SE 05:09:37 71° E 05:15:55 10° N
Cosmos 1867 3.7 05:17:38 63° WSW 05:18:20 71° WNW 05:23:47 10° NNE
SPOT 3 Rocket 4.2 05:18:24 44° WSW 05:18:51 45° W 05:23:50 10° NNW
Cosmos 1833 4.2 05:21:34 10° NNW 05:27:02 72° W 05:27:02 72° W
Cosmos 1898 Rocket 3.8 05:34:56 61° NW 05:34:56 61° NW 05:39:51 10° N
Cosmos 1818 4.1 05:32:49 10° NW 05:37:24 53° W 05:37:24 53° W
USA 81 4.3 05:39:28 64° NNW 05:39:28 64° NNW 05:44:02 10° N
Cosmos 1975 Rocket 4.5 05:43:32 35° NW 05:43:32 35° NW 05:46:25 10° N
Cosmos 1538 Rocket 4.5 05:40:57 10° NNW 05:45:22 60° NW 05:45:22 60° NW
Cosmos 1656 4.2 05:53:38 55° NNE 05:53:38 55° NNE 05:57:54 10° NNE
ARIANE 5 R/B 4.4 06:16:40 29° N 06:16:40 29° N 06:18:54 10° N
Cosmos 2297 Rocket 3.3 06:19:20 10° N 06:23:35 37° NE 06:23:35 37° NE
Cosmos 1980 Rocket 4.3 06:31:07 16° ENE 06:31:07 16° ENE 06:32:37 10° NE
Cosmos 1697 Rocket 3.9 06:35:11 37° NE 06:35:11 37° NE 06:38:33 10° NNE
Cosmos 2266 Rocket 4.3 06:38:30 65° NNW 06:38:30 65° NNW 06:43:57 10° N
Cosmos 2315 Rocket 4.5 06:47:44 10° N 06:52:55 57° NNE 06:52:55 57° NNE
USA 215 4.5 06:52:21 26° ENE 06:55:02 36° NE 07:00:51 10° NNW
Cosmos 2227 Rocket 3.6 06:52:11 10° N 06:56:29 32° NE 06:56:29 32° NE
CENTAUR R/B 4.3 07:45:53 17° E 07:45:53 17° E 07:48:05 10° ENE
Cosmos 2263 Rocket 3.2 07:40:40 10° N 07:45:10 40° NE 07:45:10 40° NE
CZ-2C R/B 4.5 07:45:27 10° NNE 07:47:55 31° NNE 07:47:55 31° NNE
Lacrosse 5 rocket 4.2 07:51:20 10° N 07:52:34 15° N 07:52:34 15° N
SL-16 R/B 3.7 08:00:59 27° ENE 08:00:59 27° ENE 08:04:28 10° NE
Cosmos 2333 Rocket 4.2 08:03:38 19° E 08:03:38 19° E 08:06:36 10° NE
Cosmos 2297 Rocket 4.4 08:04:03 10° NW 08:05:21 15° WNW 08:05:21 15° WNW
Cosmos 2219 3.9 08:03:29 10° NNW 08:08:09 50° NNE 08:08:09 50° NNE
Cosmos 1980 Rocket 3.4 08:12:51 34° NW 08:12:51 34° NW 08:17:03 10° N
CZ-2C R/B 3.3 08:23:44 52° NNW 08:23:44 52° NNW 08:27:53 10° NNW
Cosmos 2221 4.4 08:28:19 10° N 08:30:24 28° N 08:30:24 28° N
Resurs 1-4 Rocket 3.8 08:28:25 10° NE 08:32:33 23° E 08:32:34 23° E
H-2A R/B 4.2 08:29:19 10° NE 08:31:28 20° ENE 08:31:28 20° ENE
USA 215 3.8 08:39:39 45° WNW 08:39:39 45° WNW 08:44:12 10° NW
ATLAS 2AS CENTAUR R/B 2.6 08:31:03 10° NNW 08:37:48 76° ENE 08:38:28 70° ESE
Cosmos 2227 Rocket 4.1 08:36:25 10° NW 08:38:15 18° WNW 08:38:15 18° WNW
SL-19 R/B 4.5 08:36:59 10° NNE 08:43:13 87° WNW 08:43:15 86° W
IDEFIX/ARIANE 42P 2.9 08:40:42 10° NNE 08:44:56 60° NNE 08:44:56 60° NNE
CZ-2D R/B 3.5 08:42:35 10° NE 08:47:00 28° E 08:47:09 28° E
Cosmos 2360 Rocket 3.0 08:50:03 41° E 08:50:03 41° E 08:55:05 10° NE
Meteor 1-19 Rocket 4.4 08:48:04 10° N 08:53:38 64° E 08:53:47 64° E
Cosmos 2278 3.7 08:55:36 74° N 08:55:36 74° N 09:00:45 10° NNE
OAO 3 Rocket 4.4 09:02:52 35° E 09:02:52 35° E 09:05:38 10° E
MOZ.5/SAFIR/RUBIN 5/SL-8 4.3 09:04:14 56° NE 09:04:14 56° NE 09:08:25 10° N
Cosmos 2219 Rocket 3.5 09:03:42 28° ESE 09:04:26 29° ESE 09:09:12 10° NE
ALOS 3.7 09:05:52 10° NE 09:09:47 28° E 09:10:04 27° ESE
Cosmos 1241 Rocket 4.4 09:11:02 74° SSW 09:11:44 89° WNW 09:18:20 10° NNE
Cosmos 2322 Rocket 2.1 09:12:01 80° ESE 09:12:05 80° ESE 09:17:44 10° NNE
ATLAS 5 CENTAUR R/B 3.7 09:10:15 10° N 09:14:34 31° NE 09:19:42 10° ESE
ADEOS II 3.0 09:13:19 10° NNE 09:18:13 39° E 09:19:13 35° SE
Cosmos 2074 Rocket 4.2 09:18:22 48° SSE 09:19:54 63° E 09:26:02 10° NNE
Meteor 1-25 Rocket 4.3 09:26:05 57° W 09:26:06 57° W 09:31:42 10° N
Envisat 3.9 09:24:26 10° NNE 09:29:12 40° E 09:30:29 34° SE
Cosmos 2263 Rocket 4.2 09:25:25 10° NW 09:26:47 15° WNW 09:26:47 15° WNW
Cosmos 1842 Rocket 3.7 09:27:44 10° N 09:31:55 71° ENE 09:31:55 71° ENE
CENTAUR R/B 2.7 09:32:59 44° WNW 09:33:47 47° NW 09:39:59 10° NNE
NOSS 3-2 (C) 4.3 09:37:36 24° SE 09:38:52 27° ESE 09:43:17 10° NE
Meteor 1-27 Rocket 3.7 09:33:59 10° NNW 09:39:53 73° W 09:41:00 58° SSW
Cosmos 1842 4.1 09:37:00 10° N 09:39:34 42° NE 09:39:34 42° NE
SL-16 R/B 3.2 09:42:49 30° WNW 09:43:31 31° WNW 09:48:29 10° N
FENGYUN 3A 4.0 09:40:31 10° N 09:45:40 46° WNW 09:46:13 45° W
NOAA 11 4.2 09:40:24 10° NNE 09:45:51 76° ESE 09:47:21 49° S
Cosmos 2333 Rocket 2.6 09:45:38 44° W 09:46:29 48° WNW 09:51:58 10° N
Alouette 2 Rocket 3.8 09:46:28 65° WSW 09:46:54 69° WNW 09:53:06 10° N
NOSS 3-2 (A) 2.8 09:47:01 67° SW 09:47:40 80° WNW 09:53:12 10° NNE
ATLAS CENTAUR R/B 2.1 09:50:22 37° ESE 09:50:22 37° ESE 09:53:40 10° NE
SL-16 R/B 4.0 09:47:09 10° SE 09:52:43 35° ENE 09:58:18 10° N
OAO 2 Rocket 4.0 09:57:47 35° SSE 09:57:47 35° SSE 10:01:02 10° SE
Cosmos 2181 Rocket 4.0 09:50:42 10° NNW 09:56:40 57° W 09:58:16 44° SW
CZ-3 R/B 4.2 09:07:26 10° W 10:01:20 73° S 10:13:44 10° ESE
Meteor 2-4 Rocket 3.5 09:56:03 10° N 10:01:23 80° W 10:03:32 38° S
AQUA 4.1 09:58:56 10° NNE 10:03:35 61° ESE 10:05:27 34° SSE
Cosmos 1023 Rocket 4.5 09:58:31 10° NNW 10:03:36 57° WSW 10:04:38 48° SSW
Cosmos 1140 Rocket 3.5 10:00:46 10° NNW 10:05:50 59° WSW 10:07:08 45° SSW
Cosmos 1151 Rocket 3.8 10:02:15 10° N 10:06:25 48° E 10:09:24 17° SSE
Delta 2 Rocket 3.4 10:06:02 47° WNW 10:07:10 75° N 10:11:25 10° E
H-2A R/B 3.4 10:04:36 10° NNW 10:07:58 24° WNW 10:07:58 24° WNW
Cosmos 1066 Rocket 4.3 10:03:07 10° N 10:08:27 72° E 10:12:49 16° SSE
COSMOS 2428 3.8 10:07:13 18° SSE 10:10:56 40° ESE 10:16:12 10° NE
Cosmos 405 Rocket 2.9 10:10:40 44° SE 10:11:07 49° E 10:14:15 10° NNE
ARIANE 6 FM1 Upper Stage 3.0 10:11:13 44° WNW 10:11:39 46° NW 10:15:29 10° NNE
Resurs 1-4 Rocket 2.8 10:07:28 10° N 10:12:20 37° WNW 10:13:36 33° W
H-2A R/B 2.6 10:12:34 33° S 10:13:23 36° SSE 10:24:06 10° E
NOSS 2-2 (D) 3.9 10:14:16 35° SSE 10:15:05 41° ESE 10:18:09 10° NE
Cosmos 2322 4.2 10:13:23 23° S 10:16:45 55° ESE 10:22:18 10° NNE
Milstar 3 Cent rocket 2.8 10:15:47 32° SW 10:17:59 43° S 10:22:41 10° ESE
SeaSat 1 2.4 10:18:29 24° S 10:21:20 59° WSW 10:26:11 10° NNW
Cosmos 407 Rocket 3.4 10:16:34 10° NNW 10:21:51 82° WSW 10:27:09 10° SSE
SAR-Lupe-3 3.9 10:22:45 76° SSE 10:22:57 88° E 10:25:54 10° NNW
METEOR-M 4.1 10:18:48 10° NNE 10:24:09 84° ESE 10:27:28 24° S
Cosmos 1844 Rocket 3.1 10:20:24 10° NW 10:25:35 40° WSW 10:27:29 30° SSW
CZ-2D R/B 3.1 10:22:26 10° N 10:26:53 29° WNW 10:28:24 25° W
Nadezhda 3 Rocket 3.9 10:21:27 10° NNW 10:27:34 66° W 10:32:12 18° S
ATLAS 2AS CENTAUR R/B 4.3 10:24:07 10° WNW 10:25:47 14° W 10:25:47 14° W
H-2A R/B 4.2 10:26:14 10° NNE 10:29:57 44° E 10:32:43 16° SSE
Cosmos 1844 4.1 10:25:46 10° NW 10:31:05 41° WSW 10:34:08 23° SSW
Cosmos 2341 Rocket 4.2 10:26:24 12° S 10:32:13 70° E 10:38:25 10° NNE
Cosmos 2360 Rocket 3.6 10:31:48 19° W 10:33:55 24° WNW 10:38:24 10° N
Lacrosse 4 Rocket 3.0 10:31:16 13° SSE 10:34:11 28° ESE 10:37:43 10° NE
Cosmos 2366 rocket 4.3 10:29:56 10° S 10:36:06 66° E 10:42:15 10° NNE
Cosmos 1766 Rocket 4.4 10:32:21 11° SSE 10:36:17 47° E 10:40:25 10° NNE
ARGOS 4.5 10:38:15 10° NNE 10:43:16 37° E 10:48:14 10° SSE
OAO 3 Rocket 3.0 10:40:20 16° W 10:44:05 85° S 10:48:46 10° ESE
Cosmos 2327 Rocket 4.5 10:40:01 20° SSW 10:44:13 61° W 10:50:17 10° N
Iridium 4 Rocket 4.0 10:40:39 10° S 10:46:24 70° E 10:51:54 10° N
ALOS 3.6 10:43:01 10° NNW 10:46:36 23° WNW 10:48:09 19° W
Cosmos 1805 3.7 10:46:38 30° WSW 10:47:28 35° W 10:50:40 10° NNW
Cosmos 2219 Rocket 3.1 10:45:24 21° WSW 10:48:12 32° WNW 10:53:11 10° N
Cosmos 1437 Rocket 4.0 10:45:41 10° N 10:49:08 39° ENE 10:52:32 10° SSE
H-2A R/B 1.9 10:46:25 10° N 10:51:17 73° WNW 10:55:15 16° SSW
Cosmos 1954 Rocket 4.2 10:50:38 10° NNW 10:55:50 73° ENE 11:01:02 10° SSE
USA 234 3.9 10:50:25 10° NE 10:56:41 49° SE 11:02:56 10° SSW
Cosmos 2322 Rocket 4.2 10:54:09 10° W 10:56:44 13° NW 10:59:20 10° NNW
ATLAS 5 CENTAUR R/B 2.7 10:52:43 10° NW 10:57:26 35° WSW 11:03:01 10° S
ADEOS II 3.5 10:53:33 10° NNW 10:57:27 22° WNW 11:00:02 15° WSW
Meteor 2-9 Rocket 4.4 10:52:13 10° S 10:58:04 85° E 11:03:56 10° N
In-Cosmos 22 4.0 10:55:53 10° N 11:01:14 83° W 11:06:39 10° S
SL-14 R/B 3.7 10:58:55 10° N 11:02:37 60° E 11:06:19 10° SSE
COSMOS 2455 3.8 11:00:09 10° S 11:05:49 46° ESE 11:11:31 10° NE
Cosmos 2251 Rocket 3.7 11:00:50 10° NNW 11:05:56 51° WSW 11:10:58 10° S
BREEZE-M R/B 4.3 11:02:52 13° SSW 11:05:58 40° SE 11:12:11 10° ENE
Cosmos 1908 3.4 11:08:12 10° S 11:11:17 53° E 11:14:23 10° NNE
Cosmos 1110 Rocket 4.1 11:07:29 10° SSW 11:12:44 81° ESE 11:17:58 10° NNE
SWARM C 4.5 11:13:06 10° N 11:16:27 76° W 11:19:47 10° S
SWARM A 4.2 11:13:14 10° N 11:16:36 87° E 11:19:57 10° S
Cosmos 1939 Rocket 4.0 11:14:21 10° NNE 11:18:02 42° E 11:21:42 10° S
Cosmos 1821 Rocket 4.0 11:12:06 10° S 11:18:12 88° E 11:24:24 10° N
Cosmos 1975 2.6 11:14:43 10° S 11:18:26 90° ESE 11:22:11 10° N
Cosmos 1190 Rocket 4.1 11:13:30 10° NNW 11:18:30 50° WSW 11:23:28 10° S
Cosmos 1328 Rocket 3.4 11:15:59 10° N 11:20:16 74° W 11:24:31 10° S
ACS3 Solar Sail 3.4 11:17:56 10° NNE 11:23:20 34° E 11:28:50 10° SSE
Cosmos 1766 3.0 11:22:01 10° SSW 11:25:23 58° W 11:28:47 10° N
Cosmos 2278 Rocket 4.0 11:20:45 10° N 11:25:58 36° ENE 11:31:09 10° SE
ATLAS CENTAUR R/B 3.3 11:24:15 10° W 11:26:19 14° NW 11:28:25 10° NNW
USA 281 3.5 11:20:47 10° NNE 11:27:21 70° ESE 11:33:53 10° SSW
Cosmos 2218 Rocket 4.3 11:21:25 10° SSW 11:27:22 49° W 11:33:19 10° N
Cosmos 1980 3.8 11:23:15 10° SSW 11:28:54 82° ESE 11:34:34 10° NNE
NOSS 3-2 (C) 4.1 11:25:01 10° WSW 11:29:23 31° NW 11:34:27 10° NNE
Exosat Rocket 3.7 11:27:32 10° SSW 11:33:03 81° ESE 11:38:02 10° NNE
PAYLOAD A 4.2 11:27:55 10° N 11:33:08 62° WNW 11:38:10 10° SSW
Cosmos 1470 2.9 11:30:24 10° S 11:33:51 64° E 11:37:19 10° NNE
NOSS 3 (A) 3.1 11:32:32 10° SSW 11:34:27 83° ESE 11:36:06 10° NNE
SL-16 R/B 3.3 11:30:42 10° SSW 11:36:11 32° W 11:41:42 10° NW
SJ 16-02 1.2 11:34:20 10° NNW 11:38:36 74° WSW 11:42:50 10° S
CZ-2C R/B 3.0 11:35:37 10° N 11:40:23 42° WNW 11:45:11 10° SW
Helios 1A Rocket 2.5 11:37:31 10° S 11:41:00 66° WSW 11:44:30 10° NNW
Meteor 1-13 Rocket 4.2 11:36:47 10° NNW 11:42:17 70° W 11:47:51 10° S
SL-8 R/B 3.7 11:39:15 10° SW 11:43:59 88° NW 11:48:43 10° NE
Meteor 1-11 Rocket 4.3 11:41:06 10° SW 11:46:22 40° WNW 11:51:47 10° N
Delta 2 Rocket 3.3 11:42:08 10° W 11:46:23 72° SSW 11:50:32 10° ESE
